Volver al catálogo

STARLINK-5515

ActivoComunicacionesVLEO
NORAD 56884·PAYLOAD·🇺🇸 United States

Lanzado Jun 12, 2023 desde Cape Canaveral Space Force Station

Loading…

Próximos Pases (próximas 24 horas)

TLE

ActualizadoSource: CelesTrak SupGP

Época: Sep 14, 2026, 22:25 UTC

1 56884C 23083J   26257.93451389  .00038282  00000+0  13866-2 0  2576
2 56884  43.0002  96.0682 0001392 248.0407 243.7569 15.27558792    11

Sigue STARLINK-5515 en tiempo real con AllMySat

Download on the App Store